KK4WAQ Weather Reports


time (UTC)temp
C
wind
direction
speed
KPH
gust
KPH
rain 1hr
cm
rain 24hr
cm
rain mn
cm
humidity
%
barometer
mb
20260906130030 25 211 0.0 0.0 0.00 0.00 0.00 84 1012.6
20260906124517 24 211 0.0 0.0 0.00 0.00 0.00 86 1012.5
20260906123015 23 211 0.0 0.0 0.00 0.00 0.00 87 1012.4
20260906121514 23 211 0.0 0.0 0.00 0.00 0.00 87 1012.3
20260906120010 23 211 0.0 0.0 0.00 0.00 0.00 88 1012.1
20260906114509 23 207 0.0 0.0 0.00 0.00 0.00 89 1012.0
20260906113008 23 202 0.0 0.0 0.00 0.00 0.00 90 1012.1
20260906111519 22 192 0.0 0.0 0.00 0.00 0.00 90 1012.0
20260906110013 22 185 0.0 0.0 0.00 0.00 0.00 91 1011.9
20260906104512 22 182 0.0 0.0 0.00 0.00 0.00 91 1011.8
20260906103006 22 201 0.0 0.0 0.00 0.00 0.00 91 1011.7
20260906101505 23 201 0.0 0.0 0.00 0.00 0.00 90 1011.7
20260906100004 23 200 0.0 0.0 0.00 0.00 0.00 90 1011.7
20260906094506 23 200 0.0 0.0 0.00 0.00 0.00 90 1011.8
20260906093002 23 186 0.0 0.0 0.00 0.00 0.00 89 1012.1
20260906091501 23 201 0.0 6.4 0.00 0.00 0.00 89 1012.3
20260906090122 23 252 0.0 0.0 0.00 0.00 0.00 88 1012.1
20260906084559 23 252 0.0 0.0 0.00 0.00 0.00 87 1011.8
20260906083058 23 134 0.0 0.0 0.00 0.00 0.00 86 1011.5
20260906081556 23 134 0.0 0.0 0.00 0.00 0.00 85 1011.7
20260906080054 24 133 0.0 0.0 0.00 0.00 0.00 85 1011.9
20260906074553 23 206 0.0 0.0 0.00 0.00 0.00 85 1012.7
20260906073052 23 154 0.0 0.0 0.00 0.00 0.00 85 1012.3
20260906071559 23 153 0.0 1.6 0.00 0.00 0.00 84 1012.1
20260906070049 24 149 0.0 0.0 0.00 0.00 0.00 84 1012.2
20260906064548 24 141 0.0 0.0 0.00 0.00 0.00 83 1012.5
20260906063047 24 124 0.0 1.6 0.00 0.00 0.00 83 1012.1
20260906061546 25 119 0.0 0.0 0.00 0.00 0.00 82 1012.4
20260906060044 25 108 0.0 4.8 0.00 0.00 0.00 81 1012.5
20260906054544 25 74 0.0 1.6 0.00 0.00 0.00 82 1012.5
20260906053039 25 94 0.0 3.2 0.00 0.00 0.00 82 1012.6
20260906051539 26 109 0.0 11.3 0.00 0.00 0.00 79 1012.7
20260906050052 27 36 0.0 1.6 0.00 0.00 0.00 77 1012.3
20260906044530 27 146 0.0 0.0 0.00 0.00 0.00 75 1011.8
20260906043030 27 146 0.0 0.0 0.00 0.00 0.00 74 1011.9
20260906041529 27 149 0.0 0.0 0.00 0.00 0.00 74 1011.9
20260906040030 27 113 0.0 0.0 0.00 0.00 0.00 75 1012.0
20260906034538 27 113 0.0 0.0 0.00 0.00 0.00 76 1012.2
20260906033029 27 113 0.0 0.0 0.00 0.00 0.00 75 1012.1
20260906031529 27 113 0.0 0.0 0.00 0.00 0.00 75 1011.9
20260906030027 27 113 0.0 0.0 0.00 0.00 0.00 74 1011.9
20260906024525 28 113 0.0 0.0 0.00 0.00 0.00 74 1011.5
20260906023027 28 112 0.0 0.0 0.00 0.00 0.00 73 1011.2
20260906021525 28 112 0.0 0.0 0.00 0.00 0.00 73 1011.1
20260906020027 29 112 0.0 0.0 0.00 0.00 0.00 72 1010.9
20260906014529 30 112 0.0 0.0 0.00 0.00 0.00 71 1010.6
20260906013024 30 96 0.0 1.6 0.00 0.00 0.00 70 1010.7
20260906011525 30 32 0.0 0.0 0.00 0.00 0.00 72 1010.9
20260906010023 30 351 0.0 0.0 0.00 0.00 0.00 70 1010.8
20260906004524 31 351 0.0 0.0 0.00 0.00 0.00 69 1010.7
20260906003022 31 351 0.0 0.0 0.00 0.00 0.00 68 1010.6
20260906001523 32 351 0.0 0.0 0.00 0.00 0.00 66 1010.5
20260906000028 33 351 0.0 0.0 0.00 0.00 0.00 63 1010.5
20260905234519 33 351 0.0 0.0 0.00 0.00 0.00 61 1010.6
20260905233025 33 351 0.0 0.0 0.00 0.00 0.00 59 1010.6
20260905231519 34 351 0.0 0.0 0.00 0.00 0.00 58 1010.5
20260905230018 35 351 0.0 0.0 0.00 0.00 0.00 56 1010.5
20260905224517 35 309 0.0 0.0 0.00 0.00 0.00 54 1010.5
20260905223016 35 338 0.0 0.0 0.00 0.00 0.00 53 1010.6
20260905221515 35 2 0.0 1.6 0.00 0.00 0.00 50 1010.6
20260905220015 35 3 0.0 0.0 0.00 0.00 0.00 50 1010.6
20260905214512 36 343 0.0 0.0 0.00 0.00 0.00 51 1010.6
20260905213011 36 348 0.0 0.0 0.00 0.00 0.00 50 1010.6
20260905211509 36 42 0.0 0.0 0.00 0.00 0.00 49 1010.8
20260905210008 37 80 0.0 0.0 0.00 0.00 0.00 48 1010.8
20260905204510 37 9 0.0 0.0 0.00 0.00 0.00 48 1011.1
20260905203004 37 344 0.0 1.6 0.00 0.00 0.00 50 1011.3
20260905201502 36 323 0.0 0.0 0.00 0.00 0.00 52 1011.4
20260905194559 36 343 0.0 1.6 0.00 0.00 0.00 53 1011.8
20260905193053 36 11 0.0 0.0 0.00 0.00 0.00 54 1012.1
20260905191549 36 343 0.0 1.6 0.00 0.00 0.00 55 1012.3
20260905190046 36 26 0.0 1.6 0.00 0.00 0.00 54 1012.6
20260905184601 36 335 0.0 0.0 0.00 0.00 0.00 54 1012.8
20260905183043 36 18 0.0 0.0 0.00 0.00 0.00 54 1013.0
20260905181540 35 16 0.0 1.6 0.00 0.00 0.00 57 1013.2
20260905180038 35 8 0.0 0.0 0.00 0.00 0.00 60 1013.2
20260905174543 35 339 0.0 3.2 0.00 0.00 0.00 59 1013.4
20260905173033 35 10 0.0 3.2 0.00 0.00 0.00 61 1013.5
20260905171529 34 21 0.0 0.0 0.00 0.00 0.00 61 1013.6
20260905170026 33 360 0.0 0.0 0.00 0.00 0.00 64 1013.8
20260905164523 33 321 0.0 0.0 0.00 0.00 0.00 64 1014.0
20260905163019 33 1 0.0 0.0 0.00 0.00 0.00 63 1014.2
20260905161515 32 275 0.0 0.0 0.00 0.00 0.00 68 1014.2
20260905160022 31 352 0.0 0.0 0.00 0.00 0.00 73 1014.4
20260905154506 30 336 0.0 0.0 0.00 0.00 0.00 75 1014.5
20260905153003 30 21 0.0 0.0 0.00 0.00 0.00 76 1014.5
20260905151600 29 9 0.0 0.0 0.00 0.00 0.00 77 1014.5
20260905150056 28 323 0.0 1.6 0.00 0.00 0.00 80 1014.5
20260905144552 27 171 0.0 0.0 0.00 0.00 0.00 82 1014.7
20260905143048 26 171 0.0 0.0 0.00 0.00 0.00 85 1014.8
20260905141607 26 171 0.0 0.0 0.00 0.00 0.00 88 1014.7
20260905140053 25 171 0.0 0.0 0.00 0.00 0.00 89 1014.8
20260905134544 25 171 0.0 1.6 0.00 0.00 0.00 90 1014.9
20260905133050 25 171 0.0 0.0 0.00 0.00 0.00 92 1014.8
20260905131551 24 171 0.0 0.0 0.00 0.00 0.00 93 1014.9